Regional Weather Roundup
Issued by NWS Upton, NY

Current Version | Previous Version | Text Only | Print | Product List | Glossary On
Versions: 1 2 3 4 5 6 7 8 9 10 11 12 13 14 15 16 17 18 19 20 21 22 23 24 25 26 27 28 29 30 31 32 33 34 35 36 37 38 39 40 41 42 43 44 45 46 47 48 49 50
000
ASUS41 KOKX 010505
RWROKX

REGIONAL WEATHER ROUNDUP
NATIONAL WEATHER SERVICE NEW YORK NY
100 AM EDT FRI AUG 01 2014

NOTE: "FAIR" INDICATES FEW OR NO CLOUDS BELOW 12,000 FEET WITH NO
SIGNIFICANT WEATHER AND/OR OBSTRUCTIONS TO VISIBILITY.

NYZ071-072-176-178-NJZ106-104-010600-
NEW YORK CITY METRO AREA


CITY           SKY/WX    TMP DP  RH WIND       PRES   REMARKS
CENTRAL PARK   PTCLDY    74  63  68 VRB3      30.18R
LAGUARDIA APRT PTCLDY    75  64  68 S6        30.14R
KENNEDY INTL   MOCLDY    72  66  81 S6        30.17R
NEWARK/LIBERTY MOCLDY    73  65  75 SW7       30.14S
BRNX BOT. GARD   N/A     72  63  73 SW5       30.15S
TETERBORO      CLEAR     75  64  68 S3        30.14R
$$

NYZ177-179-078>081-010600-
LONG ISLAND NEW YORK

CITY           SKY/WX    TMP DP  RH WIND       PRES   REMARKS
FARMINGDALE    MOCLDY    72  68  87 S8        30.17R
ISLIP          MOCLDY    73  68  84 S7        30.16R
SHIRLEY        MOCLDY    71  67  87 S6        30.18S
WESTHAMPTON    MOCLDY    72  65  78 S6        30.20R
MONTAUK POINT    N/A     71  65  81 S6        30.19S
$$

NYZ052-065-067-010600-
HUDSON VALLEY

CITY           SKY/WX    TMP DP  RH WIND       PRES   REMARKS
WHITE PLAINS   CLEAR     67  64  90 CALM      30.16R FOG
NEWBURGH       PTCLDY    66  61  82 CALM      30.17R
MONTGOMERY     PTCLDY    61  59  93 CALM      30.15R
POUGHKEEPSIE   CLEAR     65  62  90 CALM      30.14R
ALBANY         PTCLDY    63  62  97 CALM      30.14S
$$

NJZ001-105-106-008-010-013-015-019>022-104-010600-
NEW JERSEY

CITY           SKY/WX    TMP DP  RH WIND       PRES   REMARKS
NEWARK/LIBERTY MOCLDY    73  65  75 SW7       30.14S
TETERBORO      CLEAR     75  64  68 S3        30.14R
CALDWELL       CLEAR     67  60  78 CALM      30.16R
MORRISTOWN     CLEAR     64  61  88 CALM      30.15S
SOMERVILLE     CLEAR     64  61  90 CALM      30.14R
LINDEN         FAIR      74  65  74 CALM      30.16F
SUSSEX         MOCLDY    64  60  87 CALM      30.16R
ANDOVER          N/A     61  60  97 CALM      30.17R
TRENTON        PTCLDY    69  64  84 S3        30.15S
MILLVILLE      PTCLDY    71  68  90 CALM      30.17R
ATLANTIC CITY  MOCLDY    72  67  84 MISG      30.17R
WRIGHTSTOWN    MOCLDY    68  65  91 CALM      30.14R
TOMS RIVER     MOCLDY    70  66  88 S3        30.17R
BELMAR         MOCLDY    72  64  78 S3        30.16S
$$

PAZ047>061-062-071-010600-
EASTERN PENNSYLVANIA

CITY           SKY/WX    TMP DP  RH WIND       PRES   REMARKS
PHILADELPHIA   MOCLDY    73  67  81 S5        30.15S
ALLENTOWN      MOCLDY    65  62  90 N3        30.15R
SCRANTON       CLEAR     66  58  75 E5        30.15R
$$

CTZ002-004>006-009-010-012-RIZ004-006-007-MAZ004-011-015-010600-
SOUTHERN NEW ENGLAND
 IN CT

CITY           SKY/WX    TMP DP  RH WIND       PRES   REMARKS
BRADLEY INTL   PTCLDY    68  61  78 S7        30.16R
HARTFORD       PTCLDY    68  62  81 S3        30.16S
DANBURY        CLEAR     65  61  87 CALM      30.18R
WTRBRY/OXFORD  CLEAR     66  61  82 S3        30.20R
BRIDGEPORT     PTCLDY    73  68  84 S5        30.16S
MERIDEN        CLEAR     66  62  87 CALM      30.17R
NEW HAVEN      PTCLDY    71  66  84 CALM      30.17S
CHESTER        MOCLDY    70  64  83 SW5       30.20R
GROTON         MOCLDY    68  66  93 S3        30.17S
WILLIMANTIC    PTCLDY    66  62  87 CALM      30.19R

 IN RI

CITY           SKY/WX    TMP DP  RH WIND       PRES   REMARKS
PROVIDENCE     MOCLDY    66  62  87 S3        30.19S
BLOCK ISLAND   MOCLDY    70  63  78 SW8       30.19S
WESTERLY       MOCLDY    67  63  87 CALM      30.19S

 IN MA

CITY           SKY/WX    TMP DP  RH WIND       PRES   REMARKS
BOSTON         PTCLDY    69  61  75 SW10      30.17S
WORCESTER      CLEAR     64  61  90 SW10      30.19S
WESTFIELD      CLEAR     63  60  90 CALM      30.16R
PROVINCETOWN   MOCLDY    68  64  88 SW9       30.18F
NANTUCKET      MOCLDY    63  62  97 S6        30.20S
$$

ANZ330-335-338-340-345-350-353-355-010600-
COASTAL MARINE OBSERVATIONS


STATION/POSITION TIME  SKY/WX   TEMP    WIND        PRES    VSBY  WAVE
                                AIR SEA DIR/SP/G                  HT/PER
                 (UTC)          (F)     (DEG/KT/KT) (MB)    (MI)  (FT/S)
NY HARB ENTRANCE NOT AVBL
4S FIRE IS       NOT AVBL
23SW MTP         0500            72 70              1021.6          3/ 8
HUDSON CANYON    0500            74 74  200/ 12/ 14 1021.9          3/ 7
EXECUTION ROCKS  0500            73 70  200/ 10/ 12   N/A
WESTERN LI SOUND 0500            73     200/  8/ 10   N/A           0
CENTRAL LI SOUND 0400            72 72  200/ 14/ 17   N/A           2/ 3
EASTERN LI SOUND 0400            70 69  180/  4/  4   N/A
ROBBINS REEF     0500            74     200/  5/  7   N/A
$$


>>>>>>>>>>>>>>>>>>>>>>>>>>>> KEY <<<<<<<<<<<<<<<<<<<<<<<<<<<
>                                                          <
>     SKY/WX - SKY CONDITION/PRESENT WEATHER               <
>     TMP    - TEMPERATURE IN FAHRENHEIT                   <
>     DP     - DEWPOINT IN FAHRENHEIT                      <
>     RH     - RELATIVE HUMIDITY IN PERCENT                <
>     WIND   - DIRECTION AND SPEED IN MPH                  <
>     PRES   - MEAN SEA LEVEL PRESSURE IN INCHES OF HG     <
>     WCI    - WIND CHILL INDEX                            <
>     VSB    - VISIBILITY IN MILES                         <
>     HX     - HEAT INDEX                                  <
>     TC     - TEMPERATURE IN CELSIUS                      <
>     VRB    - VARIABLE WIND DIRECTION                     <
>                                                          <
>>>>>>>>>>>>>>>>>>>>>>>>>>>> KEY <<<<<<<<<<<<<<<<<<<<<<<<<<<




USA.gov is the U.S. government's official web portal to all federal, state and local government web resources and services.